CZ-6A DEB, 61492

Orbit data source: Space-Track

CZ-6A DEB, 61492 is space debris in LEO originally from a launch on Tue, 06 Aug 2024 UTC launched from the Taiyaun Space Center, China (TSC). Debris objects in space refer to the collection of defunct objects orbiting the Earth. Examples of debris include non-operational satellites, rocket bodies, and fragments generated from explosions, collisions, or faulty payload assembly.

Loading next visibility...
Identifier
61492, 2024-140ABA
Orbit
LEO
Country
Flag of CNCN / PRC
Related business
Manufacturer
SAST
Mission
Spacecraft
Bus & Motor
Unknown
Mass
Unknown
Launch date (UTC)
2024-08-06 (2 years ago)
Launch vehicle
Unknown
Launch site
Taiyaun Space Center, China (TSC)
Object type
Payload
Rocket body
Debris
Shape & HBR
Unknown shape, 0.1 m
Radar Cross Section
Medium (>0.1 m² and <1 m²)

Expand to show TLE details & history
Last TLE update: 14 hours ago

TLE from 14 hours ago
0 CZ-6A DEB
1 61492U 24140ABA 26171.24441469  .00002051  00000-0  40870-3 0  9994
2 61492  88.9934 269.2243 0124399 270.5325  88.1633 14.56858137 94128
Epoch: 2026-06-20T05:51Z
TLE epoch observation values (Epoch: 2026-06-20T05:51:57.429Z)
Latitude
0.00003°
Longitude
-87.22681°
Altitude
704.714 km
Speed
7.504 km/s
True Right ascension
17h 56m 53s
True Declination
0° 00' 00"
Sunlit
Object was in full shadow at epoch
Visualization orbit readout
Latitude
Unknown
Longitude
Unknown
Altitude
Unknown
Speed
Unknown
Apparent Right ascension
Unknown
Apparent Declination
Unknown
Sunlit
N/A
Visualization observer readout
Local Sidereal Time
07:14:25
Azimuth
Unknown
Elevation
Unknown
Doppler factor
Unknown
Orbital elements
Apogee altitude
788.289 km
Perigee altitude
612.181 km
Semi-major axis
7,078.372 km
Eccentricity
0.01244
Inclination
88.9934°
RAAN
269.2243°
Arg. of periapsis
270.5325°
True anomaly
89.58864°
Mean anomaly
88.1633°
Eccentric anomaly
88.87592°
Mean motion
3.64454 °/min
Orbital period
98.78 mins
BSTAR
0.0004087
Loading maneuver chart data...
Computing Atmospheric mass density...
Loading historical data...
Loading historical data...
Loading historical data...
Loading historical data...
Loading historical data...
Loading historical data...
Loading historical data...

Documentation

Showing up to 5 results
|